Погода в Лебедках

Россия / Смоленская область     55°53′16″N   34°44′49″E
темп.,
°C
ветер,
м/с
пор.,
м/с
влажн.,
%
обл.,
%
осадки,
мм/ч
давл.,
гПа
погр.,
м
28 января, чт
чт2800:00−5ю2497100 0.0 1007108
03:00−6ю229799 0.0 100742
06:00−5ююв1297100 0.0 100629
09:00−4в2296100 0.0 100571
12:00−3всв2494100 0.2 1005251
15:00−2всв3794100 0.8 1003413
18:00−2всв3697100 0.6 1002276
21:00−1всв2498100 1.6 1000134
29 января, пт
пт2900:00+2юв3999100 0.8 998312
03:00+1юв4999100 1.3 995396
06:00+2юв51298100 0.4 993604
09:00+1ю61296100 1.1 992802
12:000ююв6117997 0.4 9911203
15:00−2юв5108591 0.4 9891047
18:00−3юв41095100 0.3 989641
21:00−4ююз61190100 0.6 989716
30 января, сб
сб3000:00−6ю5119097 0.1 990530
03:00−6ю4109073 0.1 991524
06:00−7ю5109388 0.2 991460
09:00−6ююз5109494 0.7 991547
12:00−5ююз51090100 0.4 992632
15:00−5ююз61189100 0.8 993659
18:00−7ююз51191100 0.1 994597
21:00−7ююз41091100 0.1 994570
31 января, вс
вс3100:00−7ю3794100 0.0 993254
03:00−7ююв249799 0.0 993122
06:00−8вюв119799 0.0 99121
09:00−8ссв1196100 0.0 99121
12:00−6ссз3493100 0.1 990271
15:00−5зсз3789100 0.3 991434
18:00−7зюз3109359 0.0 995325
21:00−6зюз4109262 0.1 998627
1 февраля, пн
пн100:00−7юз5129198 0.1 1000580
03:00−7юз4119293 0.1 1003515
06:00−9юз499696 0.0 1004268
09:00−9ююз4109597 0.1 1006298
12:00−7ю479080 0.0 1006319
15:00−6ю369186 0.0 1004309
18:00−9ююв239790 0.0 100450
21:00−10ююз119768 0.0 100321